Regional Weather Roundup
Issued by NWS

Home | Current Version | Previous Version | Text Only | Print | Product List | Glossary On
Versions: 1 2 3 4 5 6 7 8 9 10 11 12 13 14 15 16 17 18 19 20 21 22 23 24 25 26 27 28 29 30 31 32 33 34 35 36 37 38 39 40 41 42 43 44 45 46 47 48 49 50
000
ASUS43 KLMK 012302
RWRKY
KENTUCKY REGIONAL WEATHER ROUNDUP
NATIONAL WEATHER SERVICE LOUISVILLE KY
700 PM EDT SAT OCT 01 2016

NOTE "FAIR" INDICATES FEW OR NO CLOUDS BELOW 12,000 FEET
WITH NO SIGNIFICANT WEATHER AND/OR OBSTRUCTIONS TO VISIBILITY.

KYZ001>023-026-027-061>063-070>075-020000-
WESTERN AND SOUTH CENTRAL KENTUCKY

CITY           SKY/WX    TMP DP  RH WIND       PRES   REMARKS
PADUCAH        CLOUDY    69  59  70 W5        30.02S
HENDERSON      CLOUDY    66  59  77 W7        29.99S
OWENSBORO      MOCLDY   N/A N/A N/A SW6       30.01R
HOPKINSVILLE   MOCLDY    68  60  76 W8        30.03S
BOWLING GREEN  MOCLDY    69  57  65 SW9       30.03S
GLASGOW        CLOUDY    66  57  74 SW5       30.04R
$$

KYZ024-025-028>034-038-045-046-053-020000-
NORTH CENTRAL KENTUCKY

CITY           SKY/WX    TMP DP  RH WIND       PRES   REMARKS
LOUISVILLE/SDF MOCLDY    66  60  81 S8        30.00F
LOUISVILLE/LOU CLOUDY    65  60  84 S5        30.02S
FORT KNOX      MOCLDY    62  62  98 S7        30.00S
$$

KYZ035>037-039>044-047>052-055>060-089>105-020000-
NORTHEAST KENTUCKY

CITY           SKY/WX    TMP DP  RH WIND       PRES   REMARKS
LEXINGTON      LGT RAIN  63  58  83 S6        30.04S
COVINGTON      MOCLDY    64  57  78 S6        30.01S
FRANKFORT      LGT RAIN  63  58  83 SW6       30.02R
$$

KYZ054-064>069-076>088-106>120-020000-
SOUTHEAST KENTUCKY

CITY           SKY/WX    TMP DP  RH WIND       PRES   REMARKS
JACKSON        CLOUDY    64  55  72 CALM      30.07S
LONDON         CLOUDY    65  54  67 CALM      30.06S
SOMERSET       CLOUDY    63  55  77 CALM      30.07R
MIDDLESBORO    CLOUDY    66  57  71 CALM      30.07S
MONTICELLO     CLOUDY    67  58  72 NE6       30.07R
$$




USA.gov is the U.S. government's official web portal to all federal, state and local government web resources and services.